WJA1552 CYYC-KSEA

Flight info

Callsign WJA1552
Flight time N/A
Altitude 36000
Route DUMRA Q890 MEKPI DCT TWIGY DCT GEG GLASR3
Aircraft B737/M-SDE2E3FGHIRWXY/LB1

Departure

Time 2026-05-05 02:13
Airport Calgary International Airport (CYYC)

Arrival

Time N/A
Airport Seattle–Tacoma International Airport (KSEA)
Time Latitude Longitude Altitude Speed Heading
2026-05-05 01:30 51.12933 -113.99745 3565 ft 0 kts 338°
2026-05-05 01:57 51.12912 -113.99731 3565 ft 4 kts 337°
2026-05-05 01:57 51.12887 -113.99715 3557 ft 4 kts 337°
2026-05-05 01:57 51.12863 -113.99696 3555 ft 4 kts 325°
2026-05-05 01:57 51.12844 -113.99668 3558 ft 4 kts 300°
2026-05-05 01:58 51.12837 -113.99639 3556 ft 0 kts 270°
2026-05-05 02:01 51.12837 -113.99642 3565 ft 1 kts 270°
2026-05-05 02:02 51.12837 -113.99688 3565 ft 7 kts 270°
2026-05-05 02:02 51.12837 -113.99707 3565 ft 0 kts 270°
2026-05-05 02:02 51.12837 -113.99740 3562 ft 6 kts 270°
2026-05-05 02:02 51.12835 -113.99833 3565 ft 12 kts 249°
2026-05-05 02:03 51.12736 -113.99880 3560 ft 17 kts 200°
2026-05-05 02:03 51.12704 -114.00049 3565 ft 17 kts 271°
2026-05-05 02:03 51.12633 -114.00164 3559 ft 16 kts 223°
2026-05-05 02:03 51.12615 -114.00331 3565 ft 15 kts 271°
2026-05-05 02:04 51.12615 -114.00501 3565 ft 16 kts 270°
2026-05-05 02:04 51.12615 -114.00719 3565 ft 22 kts 270°
2026-05-05 02:04 51.12614 -114.00958 3565 ft 21 kts 269°
2026-05-05 02:04 51.12606 -114.01189 3565 ft 21 kts 265°
2026-05-05 02:05 51.12603 -114.01411 3565 ft 18 kts 267°
2026-05-05 02:05 51.12527 -114.01555 3560 ft 17 kts 202°
2026-05-05 02:05 51.12410 -114.01565 3559 ft 17 kts 180°
2026-05-05 02:05 51.12295 -114.01565 3561 ft 16 kts 180°
2026-05-05 02:06 51.12180 -114.01569 3563 ft 18 kts 187°
2026-05-05 02:06 51.12060 -114.01656 3561 ft 20 kts 210°
2026-05-05 02:06 51.11929 -114.01775 3562 ft 21 kts 209°
2026-05-05 02:06 51.11782 -114.01795 3559 ft 23 kts 180°
2026-05-05 02:07 51.11616 -114.01795 3563 ft 24 kts 180°
2026-05-05 02:07 51.11453 -114.01796 3562 ft 23 kts 180°
2026-05-05 02:07 51.11296 -114.01794 3561 ft 22 kts 180°
2026-05-05 02:07 51.11144 -114.01796 3560 ft 22 kts 180°
2026-05-05 02:08 51.10996 -114.01796 3559 ft 21 kts 180°
2026-05-05 02:08 51.10854 -114.01795 3558 ft 20 kts 180°
2026-05-05 02:08 51.10715 -114.01796 3557 ft 20 kts 180°
2026-05-05 02:08 51.10580 -114.01796 3556 ft 19 kts 180°
2026-05-05 02:09 51.10449 -114.01797 3555 ft 18 kts 180°
2026-05-05 02:09 51.10323 -114.01797 3553 ft 18 kts 180°
2026-05-05 02:09 51.10201 -114.01797 3553 ft 17 kts 180°
2026-05-05 02:09 51.10084 -114.01798 3552 ft 17 kts 180°
2026-05-05 02:10 51.09970 -114.01798 3551 ft 16 kts 180°
2026-05-05 02:10 51.09861 -114.01796 3549 ft 15 kts 180°
2026-05-05 02:10 51.09792 -114.01797 3550 ft 15 kts 180°
2026-05-05 02:10 51.09691 -114.01895 3549 ft 14 kts 263°
2026-05-05 02:11 51.09690 -114.01949 3547 ft 0 kts 270°
2026-05-05 02:12 51.09690 -114.01958 3546 ft 3 kts 270°
2026-05-05 02:12 51.09810 -114.02137 3548 ft 43 kts
2026-05-05 02:12 51.10377 -114.02136 3555 ft 117 kts 359°
2026-05-05 02:13 51.11306 -114.02132 3993 ft 137 kts
2026-05-05 02:13 51.12278 -114.02077 4854 ft 142 kts
2026-05-05 02:13 51.13246 -114.01997 5684 ft 139 kts
2026-05-05 02:13 51.14062 -114.01920 5850 ft 102 kts
2026-05-05 02:14 51.14831 -114.01932 5107 ft 127 kts 360°
2026-05-05 02:14 51.15761 -114.01960 4698 ft 130 kts
2026-05-05 02:14 51.16587 -114.02001 4573 ft 112 kts 358°